Total_Precipitation_Accumulation
0.64 0.83 1.03 1.20 0.66 1.02 0.67 1.41 1.18 1.10 0.78 0.67 0.51 0.32 0.20 0.06 0.11 0.19 0.18 0.16 0.15 0.06 0.01 0.02 0.04 0.05 0.05 0.02 0.00 0.00 0.00 0.01 0.00 0.02 0.40 0.01 0.06 0.08 0.05 0.03 0.07 0.10 0.07 0.16 0.21 0.41 0.49 0.25 0.27 0.30 0.50 0.39 0.40 0.45 0.31 0.28 0.14 0.16 0.17 0.11 0.12 0.12 0.13 0.20 0.19 0.30 0.24 0.25 0.41 0.36 0.35 0.28 0.26 0.26 0.28 0.34 0.29 0.32 0.31 0.22 0.27 0.17 0.11 0.09 0.17 0.30 0.33 0.35 0.37 0.30 0.35 0.34 0.29 0.22 0.18 0.14 0.16
0.64 0.62 0.84 0.95 1.22 0.68 1.12 0.71 1.06 1.13 0.74 0.58 0.42 0.24 0.17 0.15 0.14 0.19 0.16 0.10 0.09 0.05 0.00 0.01 0.01 0.01 0.00 0.00 0.00 0.00 0.00 0.01 0.00 0.01 0.08 0.09 0.15 0.13 0.09 0.05 0.05 0.08 0.08 0.16 0.25 0.31 0.48 0.43 0.20 0.21 0.35 0.33 0.38 0.26 0.27 0.25 0.14 0.10 0.09 0.11 0.09 0.12 0.14 0.23 0.20 0.30 0.28 0.30 0.50 0.46 0.41 0.39 0.38 0.32 0.24 0.28 0.26 0.29 0.20 0.21 0.16 0.14 0.11 0.10 0.19 0.28 0.29 0.34 0.29 0.25 0.33 0.29 0.20 0.09 0.09 0.12 0.11
0.62 0.59 0.55 0.70 0.81 0.93 1.19 1.27 0.76 0.70 0.74 0.51 0.31 0.20 0.43 0.25 0.22 0.20 0.13 0.07 0.04 0.01 0.01 0.01 0.00 0.00 0.00 0.00 0.00 0.00 0.02 0.02 0.01 0.03 0.11 0.33 0.16 0.34 0.07 0.06 0.06 0.06 0.07 0.11 0.23 0.28 0.31 0.33 0.17 0.17 0.31 0.30 0.49 0.37 0.26 0.17 0.17 0.12 0.09 0.09 0.11 0.12 0.14 0.26 0.25 0.34 0.33 0.38 0.37 0.39 0.39 0.35 0.37 0.24 0.25 0.22 0.26 0.29 0.16 0.15 0.08 0.05 0.09 0.13 0.18 0.17 0.19 0.22 0.17 0.25 0.21 0.14 0.11 0.10 0.10 0.10 0.08
0.60 0.60 0.54 0.56 0.87 0.83 1.22 0.93 0.66 0.60 0.50 0.37 0.24 0.15 0.28 0.39 0.30 0.18 0.12 0.09 0.06 0.01 0.00 0.00 0.00 0.00 0.00 0.00 0.00 0.00 0.00 0.01 0.03 0.02 0.17 0.28 0.06 0.10 0.10 0.07 0.09 0.10 0.10 0.16 0.21 0.24 0.28 0.28 0.10 0.18 0.19 0.31 0.47 0.40 0.34 0.18 0.14 0.15 0.14 0.09 0.12 0.13 0.17 0.23 0.31 0.35 0.41 0.45 0.32 0.32 0.32 0.33 0.45 0.36 0.26 0.25 0.24 0.15 0.12 0.06 0.06 0.06 0.08 0.12 0.12 0.13 0.15 0.15 0.16 0.19 0.13 0.09 0.08 0.16 0.11 0.08 0.04
0.67 0.66 0.58 0.59 0.68 1.16 0.99 0.89 0.68 0.47 0.40 0.35 0.26 0.27 0.39 0.51 0.35 0.20 0.11 0.05 0.05 0.05 0.02 0.01 0.01 0.01 0.00 0.01 0.00 0.02 0.07 0.02 0.02 0.02 0.03 0.10 0.02 0.07 0.07 0.10 0.15 0.17 0.17 0.19 0.24 0.23 0.26 0.10 0.14 0.12 0.20 0.40 0.43 0.50 0.39 0.21 0.17 0.13 0.13 0.12 0.13 0.15 0.16 0.24 0.28 0.35 0.35 0.31 0.26 0.36 0.40 0.40 0.31 0.21 0.20 0.17 0.17 0.14 0.06 0.07 0.06 0.05 0.08 0.10 0.07 0.07 0.16 0.16 0.14 0.12 0.06 0.04 0.08 0.12 0.10 0.08 0.05
0.88 0.79 0.67 0.64 1.13 1.18 0.72 0.83 0.75 0.58 0.38 0.39 0.14 0.24 0.38 0.47 0.49 0.28 0.16 0.06 0.02 0.01 0.03 0.06 0.04 0.03 0.01 0.01 0.00 0.02 0.00 0.02 0.00 0.03 0.02 0.08 0.05 0.07 0.06 0.11 0.21 0.19 0.17 0.18 0.20 0.22 0.37 0.09 0.13 0.15 0.22 0.32 0.46 0.60 0.39 0.25 0.21 0.15 0.13 0.17 0.14 0.14 0.22 0.28 0.22 0.30 0.28 0.31 0.37 0.47 0.35 0.31 0.27 0.40 0.21 0.17 0.18 0.16 0.06 0.04 0.04 0.05 0.06 0.05 0.08 0.12 0.15 0.14 0.18 0.13 0.20 0.06 0.11 0.15 0.15 0.09 0.05
0.79 0.97 0.91 0.82 0.81 0.70 1.30 0.72 0.51 0.45 0.47 0.13 0.24 0.30 0.31 0.39 0.37 0.33 0.27 0.15 0.05 0.02 0.01 0.02 0.05 0.05 0.04 0.03 0.01 0.01 0.00 0.00 0.02 0.01 0.02 0.04 0.05 0.05 0.07 0.15 0.21 0.20 0.24 0.23 0.28 0.24 0.31 0.10 0.11 0.13 0.15 0.27 0.39 0.47 0.43 0.36 0.24 0.26 0.19 0.21 0.20 0.23 0.28 0.29 0.30 0.40 0.34 0.27 0.36 0.38 0.35 0.26 0.25 0.21 0.28 0.28 0.22 0.18 0.10 0.05 0.09 0.06 0.05 0.04 0.09 0.13 0.15 0.17 0.14 0.16 0.09 0.07 0.10 0.15 0.10 0.07 0.08
0.59 0.95 1.25 1.01 1.11 0.83 0.73 0.57 0.46 0.31 0.57 0.28 0.34 0.31 0.36 0.33 0.27 0.21 0.29 0.29 0.14 0.04 0.03 0.02 0.02 0.03 0.10 0.06 0.07 0.09 0.01 0.01 0.01 0.00 0.02 0.03 0.04 0.06 0.09 0.13 0.23 0.28 0.31 0.28 0.25 0.27 0.22 0.11 0.10 0.14 0.09 0.14 0.37 0.35 0.32 0.33 0.26 0.27 0.20 0.19 0.20 0.28 0.34 0.31 0.28 0.33 0.37 0.26 0.27 0.33 0.33 0.34 0.16 0.25 0.20 0.24 0.24 0.18 0.08 0.08 0.06 0.09 0.05 0.04 0.08 0.10 0.15 0.12 0.14 0.15 0.09 0.08 0.09 0.13 0.11 0.06 0.05
0.52 0.76 1.10 1.16 1.09 0.89 0.76 0.53 0.44 0.31 0.35 0.33 0.36 0.36 0.46 0.39 0.28 0.20 0.22 0.21 0.27 0.08 0.04 0.03 0.02 0.05 0.04 0.03 0.04 0.14 0.09 0.01 0.04 0.01 0.03 0.04 0.06 0.06 0.10 0.13 0.12 0.34 0.33 0.30 0.32 0.28 0.31 0.27 0.33 0.12 0.10 0.09 0.26 0.39 0.28 0.25 0.22 0.21 0.21 0.20 0.24 0.26 0.32 0.40 0.31 0.34 0.29 0.26 0.30 0.33 0.23 0.24 0.26 0.22 0.29 0.26 0.22 0.19 0.06 0.09 0.05 0.05 0.06 0.06 0.08 0.08 0.07 0.15 0.10 0.15 0.08 0.08 0.12 0.14 0.07 0.09 0.05
0.55 0.66 1.15 1.05 1.25 0.97 0.60 0.50 0.41 0.38 0.40 0.47 0.52 0.47 0.51 0.52 0.38 0.24 0.28 0.23 0.17 0.16 0.07 0.04 0.04 0.02 0.07 0.06 0.04 0.05 0.22 0.06 0.05 0.05 0.06 0.04 0.18 0.10 0.13 0.11 0.08 0.14 0.40 0.32 0.37 0.35 0.77 0.72 0.59 0.29 0.17 0.12 0.22 0.47 0.42 0.38 0.24 0.20 0.18 0.22 0.25 0.31 0.26 0.32 0.41 0.35 0.26 0.21 0.22 0.29 0.17 0.17 0.24 0.27 0.19 0.20 0.16 0.08 0.07 0.09 0.07 0.06 0.06 0.08 0.09 0.09 0.07 0.06 0.05 0.13 0.08 0.05 0.11 0.08 0.06 0.05 0.04
0.73 0.53 0.68 1.05 1.10 0.98 0.70 0.49 0.28 0.42 0.44 0.39 0.58 0.59 0.50 0.46 0.47 0.42 0.33 0.33 0.22 0.14 0.07 0.05 0.05 0.05 0.06 0.05 0.04 0.03 0.19 0.13 0.06 0.10 0.07 0.06 0.09 0.48 0.19 0.15 0.12 0.12 0.25 0.40 0.49 0.79 1.62 0.70 0.29 0.20 0.17 0.17 0.18 0.29 0.46 0.46 0.40 0.30 0.24 0.23 0.23 0.28 0.24 0.25 0.45 0.39 0.30 0.29 0.24 0.22 0.21 0.24 0.28 0.34 0.21 0.11 0.04 0.03 0.03 0.06 0.06 0.05 0.08 0.08 0.08 0.07 0.05 0.02 0.05 0.12 0.06 0.07 0.08 0.09 0.06 0.05 0.06
0.99 0.67 0.54 1.02 0.91 0.79 0.62 0.37 0.30 0.32 0.24 0.42 0.60 0.67 0.72 0.59 0.50 0.50 0.45 0.41 0.27 0.20 0.08 0.02 0.03 0.04 0.08 0.13 0.11 0.08 0.09 0.12 0.05 0.06 0.10 0.08 0.09 0.23 0.31 0.27 0.31 0.30 0.27 0.45 0.76 1.32 1.34 1.19 0.46 0.23 0.18 0.24 0.20 0.17 0.41 0.40 0.54 0.44 0.24 0.30 0.30 0.28 0.25 0.36 0.38 0.38 0.31 0.29 0.28 0.17 0.20 0.31 0.32 0.25 0.19 0.12 0.06 0.03 0.05 0.03 0.03 0.03 0.05 0.12 0.07 0.06 0.05 0.03 0.03 0.05 0.05 0.07 0.15 0.09 0.08 0.07 0.06
0.80 1.07 0.63 0.65 0.61 0.45 0.51 0.46 0.36 0.33 0.41 0.45 0.55 0.75 0.71 0.73 0.72 0.57 0.51 0.42 0.46 0.30 0.16 0.06 0.02 0.01 0.09 0.15 0.16 0.12 0.26 0.14 0.11 0.10 0.11 0.18 0.12 0.19 0.32 0.37 0.30 0.54 0.56 0.94 1.64 2.65 2.42 0.97 0.84 0.53 0.46 0.28 0.31 0.19 0.31 0.46 0.66 0.78 0.48 0.36 0.32 0.26 0.23 0.25 0.29 0.35 0.30 0.27 0.23 0.19 0.16 0.14 0.16 0.17 0.11 0.12 0.06 0.05 0.02 0.05 0.03 0.04 0.06 0.09 0.09 0.07 0.07 0.05 0.03 0.05 0.06 0.06 0.17 0.09 0.10 0.11 0.04
1.05 0.86 0.91 0.82 0.46 0.37 0.41 0.42 0.33 0.35 0.42 0.42 0.41 0.57 0.69 0.72 0.66 0.65 0.53 0.59 0.47 0.48 0.38 0.16 0.07 0.03 0.04 0.05 0.24 0.27 0.20 0.16 0.16 0.23 0.29 0.33 0.27 0.40 0.44 0.80 1.49 1.38 0.79 0.58 1.34 1.75 1.65 0.91 0.80 1.13 0.86 1.22 0.59 0.46 0.21 0.42 0.51 0.85 0.95 0.71 0.42 0.33 0.28 0.20 0.16 0.25 0.27 0.20 0.15 0.11 0.08 0.10 0.16 0.18 0.12 0.08 0.13 0.08 0.03 0.03 0.05 0.04 0.05 0.04 0.06 0.08 0.10 0.06 0.09 0.09 0.05 0.06 0.08 0.12 0.11 0.06 0.04
0.83 1.08 1.32 0.98 0.68 0.34 0.28 0.36 0.29 0.31 0.39 0.36 0.48 0.61 0.64 0.59 0.45 0.41 0.55 0.59 0.45 0.36 0.39 0.34 0.19 0.09 0.19 0.02 0.05 0.15 0.16 0.29 0.25 0.54 0.49 0.30 0.40 0.54 0.53 0.76 2.01 1.52 1.62 1.17 2.07 1.77 1.34 1.94 1.51 1.46 1.35 2.12 1.28 0.70 0.83 0.43 0.45 0.68 0.81 1.12 0.74 0.70 0.49 0.36 0.21 0.19 0.22 0.12 0.11 0.08 0.12 0.11 0.10 0.08 0.08 0.03 0.02 0.03 0.02 0.00 0.01 0.04 0.05 0.05 0.04 0.04 0.07 0.09 0.07 0.11 0.12 0.11 0.13 0.06 0.05 0.03 0.02
0.56 0.51 0.90 1.04 0.50 0.34 0.30 0.18 0.14 0.21 0.47 0.25 0.61 0.75 0.70 0.53 0.35 0.33 0.38 0.55 0.47 0.36 0.45 0.46 0.39 0.27 0.08 0.04 0.01 0.05 0.07 0.17 0.36 0.37 0.42 0.74 0.54 0.96 1.20 1.53 2.09 2.47 2.54 1.63 1.78 1.93 1.70 2.26 1.80 2.33 2.24 1.96 1.56 1.30 0.71 0.80 0.35 0.44 0.65 0.56 0.96 1.07 0.67 0.40 0.34 0.24 0.16 0.09 0.07 0.10 0.14 0.13 0.10 0.13 0.02 0.10 0.02 0.03 0.02 0.04 0.01 0.01 0.05 0.05 0.04 0.06 0.03 0.03 0.05 0.11 0.15 0.16 0.13 0.07 0.04 0.01 0.01
0.52 0.69 1.28 0.65 0.59 0.27 0.34 0.22 0.23 0.48 0.23 0.18 0.49 0.87 0.80 0.52 0.28 0.19 0.18 0.24 0.39 0.63 0.42 0.45 0.43 0.33 0.20 0.10 0.01 0.10 0.17 0.41 0.29 0.91 1.16 1.00 1.57 1.79 2.24 2.15 2.01 2.65 2.87 2.13 1.25 1.56 1.93 1.91 2.12 2.68 1.73 1.67 1.87 1.52 1.40 0.67 0.51 0.40 0.61 0.71 1.03 1.03 1.22 0.83 0.58 0.56 0.40 0.21 0.23 0.15 0.15 0.23 0.31 0.33 0.10 0.30 0.02 0.05 0.06 0.05 0.01 0.01 0.03 0.05 0.08 0.05 0.06 0.04 0.06 0.11 0.10 0.11 0.09 0.06 0.02 0.02 0.01
0.65 1.00 0.67 0.71 0.27 0.29 0.14 0.32 0.27 0.26 0.26 0.24 0.31 0.71 0.87 0.69 0.47 0.19 0.13 0.15 0.22 0.30 0.50 0.40 0.29 0.34 0.22 0.14 0.10 0.10 0.20 0.54 0.48 0.97 1.47 1.83 1.60 1.74 2.36 2.13 3.30 2.55 3.38 3.56 2.83 2.39 1.65 1.68 2.06 1.73 2.15 3.23 3.19 2.94 2.38 1.28 0.84 0.79 1.14 1.01 1.01 0.84 1.28 2.10 1.19 1.54 0.79 0.69 0.33 0.26 0.22 0.24 0.30 0.35 0.27 0.17 0.09 0.06 0.07 0.04 0.01 0.00 0.01 0.02 0.02 0.03 0.02 0.03 0.07 0.08 0.05 0.19 0.06 0.03 0.02 0.07 0.03
0.67 0.44 0.43 0.26 0.20 0.20 0.12 0.16 0.55 0.34 0.50 0.33 0.54 0.41 0.61 1.02 0.38 0.43 0.20 0.11 0.11 0.23 0.36 0.45 0.32 0.24 0.25 0.27 0.25 0.15 0.77 0.43 0.78 1.58 1.18 1.42 1.73 2.08 1.27 2.39 3.24 3.26 2.99 2.67 2.58 2.70 1.97 1.68 1.84 1.66 1.52 2.35 2.31 3.21 3.24 2.68 1.71 0.86 1.02 0.83 0.93 0.74 1.11 1.41 1.50 1.21 1.22 0.94 0.80 0.53 0.34 0.28 0.29 0.35 0.44 0.18 0.20 0.08 0.08 0.04 0.04 0.01 0.01 0.02 0.08 0.06 0.07 0.08 0.12 0.07 0.03 0.14 0.14 0.12 0.05 0.08 0.08
0.44 0.28 0.25 0.09 0.04 0.22 0.15 0.09 0.56 0.20 0.22 0.22 0.32 0.39 0.35 0.53 0.38 0.39 0.34 0.20 0.09 0.13 0.20 0.46 0.44 0.35 0.31 0.42 0.30 0.94 1.63 0.56 1.88 1.00 1.14 1.09 1.54 1.96 1.35 1.38 2.37 3.07 2.97 2.97 2.90 2.82 2.59 2.00 1.79 1.74 1.51 2.09 2.36 3.26 3.04 3.44 2.01 1.90 1.28 1.36 1.12 1.38 1.42 1.53 1.22 0.99 2.31 0.97 0.77 0.67 0.68 0.43 0.33 0.47 0.44 0.26 0.35 0.40 0.30 0.09 0.10 0.05 0.09 0.06 0.06 0.08 0.09 0.07 0.08 0.08 0.05 0.08 0.22 0.17 0.06 0.08 0.07
0.58 0.39 0.18 0.22 0.03 0.04 0.03 0.09 0.25 0.50 0.11 0.30 0.31 0.27 0.28 0.29 0.30 0.23 0.20 0.19 0.48 0.40 0.13 0.23 0.79 0.57 0.49 0.61 0.57 1.38 1.78 0.85 1.04 1.13 0.92 1.09 1.41 1.66 2.76 2.55 1.66 1.52 2.16 2.80 3.82 3.11 2.78 2.80 2.08 1.83 1.80 1.69 2.02 2.22 2.80 3.19 2.35 2.19 1.92 1.93 0.95 1.21 1.09 1.11 1.46 1.88 1.67 1.75 0.96 0.81 1.14 0.68 0.62 0.50 0.54 0.48 0.36 0.37 0.21 0.31 0.30 0.27 0.20 0.17 0.10 0.16 0.20 0.28 0.13 0.20 0.21 0.15 0.14 0.14 0.08 0.08 0.09
0.41 0.23 0.09 0.07 0.09 0.05 0.04 0.04 0.12 0.27 0.25 0.16 0.19 0.27 0.46 0.30 0.13 0.26 0.23 0.47 0.45 0.80 0.20 0.26 0.38 0.44 0.73 0.67 0.49 1.75 1.19 0.96 1.05 0.77 1.43 1.41 1.34 1.78 1.44 2.33 2.59 2.15 1.82 2.71 2.89 3.18 2.98 2.94 2.75 2.45 1.97 1.70 1.49 1.39 1.57 2.65 3.69 2.51 1.78 1.14 0.80 0.93 1.04 1.10 1.02 1.53 1.08 1.37 1.10 0.87 0.55 0.69 0.72 1.05 0.53 0.60 0.47 0.36 0.23 0.24 0.17 0.20 0.21 0.28 0.16 0.14 0.12 0.12 0.12 0.11 0.09 0.16 0.16 0.10 0.06 0.07 0.19
0.64 0.15 0.17 0.12 0.06 0.15 0.07 0.03 0.10 0.18 0.32 0.27 0.31 0.34 0.16 0.30 0.38 0.23 0.32 0.42 0.66 0.35 0.80 0.28 0.32 0.36 0.61 0.62 0.47 0.58 0.79 0.99 1.79 0.91 1.15 1.41 1.64 0.98 1.84 2.05 1.99 2.54 2.57 1.50 1.46 2.71 3.08 2.65 2.90 3.32 2.67 2.16 2.02 1.78 1.64 1.83 2.66 3.26 2.55 2.04 1.42 1.23 0.84 1.01 1.41 1.52 1.10 1.05 1.54 1.13 0.70 0.92 0.56 0.52 0.71 0.58 0.54 0.43 0.21 0.17 0.14 0.13 0.11 0.10 0.10 0.05 0.07 0.07 0.06 0.06 0.06 0.03 0.07 0.07 0.04 0.10 0.17
0.45 0.40 0.06 0.06 0.07 0.10 0.10 0.13 0.10 0.13 0.14 0.25 0.29 0.07 0.25 0.40 0.48 0.33 0.26 0.23 0.43 0.30 0.26 0.65 1.60 0.51 0.41 0.40 0.48 0.65 0.29 0.68 0.93 0.87 1.18 1.42 1.08 1.83 1.44 1.77 2.38 2.62 2.43 1.68 1.96 1.22 2.60 2.95 3.01 3.42 3.84 3.02 2.49 2.23 2.00 2.14 1.67 2.19 3.55 3.12 2.12 1.16 1.25 1.05 0.59 0.73 0.94 1.38 1.31 1.58 0.89 0.84 0.58 0.39 0.66 0.59 0.72 0.63 0.46 0.46 0.28 0.24 0.13 0.18 0.17 0.10 0.09 0.10 0.08 0.07 0.03 0.03 0.03 0.05 0.05 0.11 0.20
0.53 0.30 0.15 0.05 0.06 0.13 0.41 0.08 0.03 0.08 0.12 0.17 0.14 0.33 0.34 0.45 0.33 0.29 0.28 0.46 0.37 0.32 0.46 0.62 1.42 1.60 1.35 1.10 0.37 0.56 0.87 0.39 0.67 0.68 0.85 0.63 1.21 0.83 1.61 1.49 1.46 1.93 2.43 2.10 2.09 1.44 1.11 1.57 3.24 3.34 3.02 2.98 2.99 2.18 2.28 2.25 1.96 1.66 2.12 3.98 3.57 2.25 1.94 1.66 1.12 1.07 1.37 1.29 1.74 1.66 2.01 1.05 1.00 0.64 0.90 0.65 0.60 0.65 0.60 0.44 0.38 0.27 0.23 0.12 0.09 0.12 0.13 0.08 0.08 0.06 0.04 0.03 0.04 0.04 0.07 0.16 0.17
0.20 0.17 0.15 0.16 0.22 0.08 0.17 0.20 0.09 0.06 0.11 0.10 0.13 0.30 0.39 0.67 0.41 0.48 0.80 0.28 0.77 0.91 0.79 1.11 0.79 0.69 2.77 1.03 1.11 0.52 1.06 1.02 1.02 0.94 0.69 0.73 0.55 1.36 0.82 1.60 1.36 1.46 1.33 1.48 1.91 2.30 1.94 1.70 2.02 3.35 4.51 3.63 4.09 3.94 2.42 2.40 2.28 2.17 2.21 2.15 4.14 3.27 2.30 1.82 2.13 1.41 1.56 1.10 1.45 1.45 1.41 2.00 1.64 0.82 0.78 0.72 0.65 0.44 0.60 0.69 0.56 0.40 0.30 0.25 0.18 0.10 0.28 0.12 0.08 0.06 0.04 0.05 0.06 0.06 0.11 0.17 0.15
0.08 0.22 0.19 0.13 0.19 0.35 0.39 0.27 0.20 0.29 0.13 0.08 0.17 0.37 0.39 0.35 0.52 0.74 0.37 0.21 0.32 1.54 1.28 1.60 1.98 1.32 1.20 2.59 1.10 1.55 0.68 0.83 1.24 0.99 1.29 1.42 0.71 0.96 1.12 0.84 1.43 1.36 1.30 1.85 1.62 1.75 2.28 2.30 2.25 2.13 2.58 3.74 4.89 4.80 3.60 2.91 2.71 2.72 2.11 2.34 2.39 3.52 3.44 2.13 1.76 1.24 1.12 1.22 1.04 1.63 1.67 1.56 1.38 1.66 1.04 0.86 0.73 0.52 0.54 0.47 0.60 0.58 0.55 0.54 0.53 0.52 0.38 0.18 0.10 0.09 0.07 0.07 0.05 0.07 0.14 0.19 0.14
0.17 0.04 0.09 0.16 0.39 0.32 0.34 0.21 0.24 0.37 0.30 0.10 0.22 0.71 0.25 0.38 0.37 0.84 0.58 0.32 0.25 0.75 1.33 1.49 1.94 1.11 1.71 0.75 1.60 1.19 1.75 1.67 1.06 1.16 1.99 1.92 1.24 0.71 0.60 0.90 0.91 0.97 0.95 1.54 1.52 2.17 2.30 2.15 2.07 2.42 2.04 2.32 3.93 4.60 4.74 4.06 3.03 2.63 2.53 2.16 2.17 2.53 3.12 3.74 2.26 1.77 1.47 1.11 1.05 1.02 1.21 1.50 1.53 1.85 2.10 2.23 1.73 1.13 0.77 0.60 0.51 0.50 0.29 0.32 0.37 0.25 0.27 0.25 0.17 0.16 0.12 0.13 0.08 0.11 0.21 0.26 0.17
0.30 0.14 0.34 0.18 0.17 0.39 0.30 0.43 0.52 0.26 0.47 0.17 0.25 0.43 0.25 0.31 0.40 0.50 0.66 0.64 0.40 0.53 0.54 1.02 1.91 1.76 1.20 1.40 1.70 0.91 1.36 1.41 1.75 0.90 1.29 1.35 2.03 2.34 0.59 0.63 0.94 1.23 1.59 1.00 1.46 1.64 2.15 2.45 2.23 1.96 2.19 2.46 2.32 3.58 4.59 3.66 3.57 4.44 2.88 2.46 2.17 2.06 2.82 2.80 3.39 2.36 1.70 1.56 1.26 1.04 1.40 1.10 1.28 1.45 1.47 1.81 1.61 1.81 1.48 1.08 0.79 0.91 0.54 0.46 0.52 0.36 0.34 0.33 0.26 0.26 0.28 0.19 0.23 0.22 0.21 0.29 0.32
0.42 0.43 0.51 0.53 0.38 0.29 0.31 0.33 0.98 0.37 0.42 0.26 0.25 0.46 0.58 0.45 0.55 0.58 0.57 0.72 0.50 0.32 0.52 1.19 0.86 2.18 1.95 1.33 1.09 1.33 1.51 1.34 1.26 1.67 1.54 1.23 1.42 1.46 2.79 2.23 1.00 1.24 1.38 1.45 1.55 1.55 1.65 1.98 2.63 2.82 2.63 2.61 2.08 1.83 3.44 3.82 3.85 3.81 3.48 3.89 3.24 2.73 2.43 3.02 2.61 3.12 2.29 1.92 1.42 1.22 1.12 1.21 1.07 1.75 1.35 1.47 2.14 1.84 1.78 1.29 1.44 1.02 0.94 1.01 0.79 0.57 0.57 0.38 0.34 0.24 0.18 0.21 0.15 0.26 0.27 0.36 0.28
0.50 0.60 0.54 0.63 0.60 0.24 0.13 0.18 0.41 0.54 0.44 0.39 0.32 0.62 0.60 0.65 0.54 0.67 0.56 0.57 0.80 0.44 0.30 0.47 0.76 1.35 1.68 1.72 1.43 0.94 0.83 1.01 1.55 0.99 0.93 1.57 1.76 1.84 0.77 1.47 3.40 1.41 1.41 1.65 1.68 1.79 1.95 1.87 2.28 2.86 3.04 2.76 2.41 2.32 2.13 3.78 3.39 3.32 3.94 3.58 3.28 3.49 2.43 2.04 2.72 2.75 3.28 2.78 2.10 1.44 1.49 1.35 1.27 1.21 1.44 1.80 1.49 1.11 1.50 1.60 1.51 1.05 0.76 1.22 1.12 0.75 0.84 0.81 0.73 0.59 0.63 0.54 0.22 0.21 0.38 0.41 0.35
0.66 0.95 1.02 0.87 0.33 0.27 0.05 0.06 0.36 0.40 0.73 0.82 0.78 0.82 0.87 0.69 1.08 0.69 0.65 0.74 0.67 0.82 0.51 0.49 0.38 0.44 1.64 1.81 1.45 1.29 1.24 1.06 1.24 1.11 1.60 1.09 1.60 1.85 2.06 1.44 1.00 2.03 2.29 2.07 2.57 1.93 2.24 1.94 2.19 3.03 3.06 3.47 3.05 2.37 2.37 2.22 2.54 3.03 4.57 4.21 3.86 3.27 3.45 3.05 2.64 3.29 3.06 3.99 3.03 2.25 1.57 1.38 1.63 1.30 1.08 1.32 1.84 1.63 1.25 0.96 1.15 0.98 1.17 1.08 1.16 0.94 0.73 0.74 0.77 0.65 0.32 0.49 0.37 0.38 0.49 0.48 0.38
1.26 0.51 0.70 0.62 0.30 0.33 0.21 0.09 0.09 0.17 1.00 0.74 0.74 0.80 0.63 0.77 0.71 0.74 0.67 0.61 0.75 0.77 0.79 0.76 0.49 0.29 0.36 1.06 1.78 1.17 1.35 1.20 1.28 1.67 1.62 1.39 0.88 1.44 1.74 2.26 2.12 0.92 2.28 2.42 1.95 2.75 2.23 2.39 2.39 2.34 3.13 3.36 3.29 2.97 2.48 2.26 2.49 2.94 2.38 4.05 4.00 4.10 4.68 2.97 2.62 2.90 3.98 3.80 4.61 4.38 3.13 2.21 2.07 1.94 1.97 1.49 1.42 1.70 1.61 1.44 1.29 1.53 1.19 1.47 1.16 1.14 1.04 0.74 0.60 0.34 0.51 0.53 0.91 0.89 0.89 0.66 0.74
1.03 0.58 0.42 0.40 0.29 0.66 0.16 0.16 0.11 0.41 0.67 1.14 0.91 0.82 0.87 0.99 0.76 0.89 0.65 0.55 0.58 0.63 0.68 0.80 0.84 0.48 0.42 0.40 1.39 1.47 1.06 1.28 1.38 1.22 1.48 1.61 1.71 1.34 1.48 2.20 2.06 1.93 1.26 1.86 2.50 2.70 2.23 2.06 2.31 2.46 2.54 3.04 3.90 3.49 3.34 2.62 2.27 2.48 2.48 2.72 3.64 3.78 4.64 4.43 3.98 3.49 2.80 3.03 2.97 4.01 4.28 4.20 2.68 1.79 1.58 1.85 1.33 1.22 1.23 1.61 1.62 1.66 1.58 1.51 1.80 1.82 1.60 1.51 1.17 1.07 0.73 0.36 0.37 0.51 0.74 0.34 0.40
0.42 0.41 0.38 0.42 0.24 0.27 0.25 0.19 0.48 0.34 0.27 1.44 0.71 0.50 0.90 0.79 0.69 0.91 0.99 0.70 0.48 0.49 0.54 0.73 0.75 0.82 0.56 0.39 0.49 0.73 1.23 1.25 1.36 1.56 1.45 1.48 1.30 1.07 1.90 1.61 1.60 2.24 1.85 1.41 1.15 2.06 3.56 3.00 2.48 2.21 2.22 2.65 3.00 3.03 4.24 4.23 3.08 2.84 2.94 2.87 3.78 3.48 3.77 4.28 3.92 3.68 3.73 2.94 2.38 2.81 3.46 3.93 4.54 3.62 2.33 1.79 2.01 1.73 1.88 1.57 1.36 1.47 1.83 1.72 1.52 1.45 1.44 1.56 1.24 1.11 0.94 0.83 0.48 0.28 0.48 0.32 0.42
0.24 0.10 0.13 0.22 0.28 0.22 0.43 0.43 0.18 0.32 0.36 0.44 0.73 0.62 0.82 0.80 0.76 0.91 0.97 0.76 0.57 0.44 0.39 0.46 0.59 0.87 0.80 0.64 0.56 0.50 0.64 1.37 1.40 1.55 1.51 1.42 1.59 1.65 1.29 1.70 1.33 1.96 2.52 2.01 2.26 2.26 1.51 2.74 2.64 2.72 2.89 2.99 3.21 3.14 4.02 4.39 4.97 3.62 3.65 3.43 3.40 3.35 3.41 2.98 3.66 3.69 3.14 3.23 2.88 2.78 3.02 2.89 3.53 4.26 4.18 3.50 2.72 1.79 1.93 1.82 1.44 1.41 2.06 1.68 1.59 1.73 1.42 1.40 1.19 1.25 1.14 1.05 0.81 0.92 0.72 0.71 0.46
0.30 0.32 0.35 0.33 0.22 0.36 0.71 1.13 0.51 0.38 0.26 0.52 0.57 0.92 0.74 0.82 1.00 0.88 1.00 0.83 0.62 0.52 0.39 0.35 0.35 0.51 0.81 0.91 0.68 0.73 1.01 0.59 0.80 1.00 1.49 1.37 1.09 1.71 1.33 1.60 1.85 1.56 1.79 2.91 2.09 2.16 1.81 1.49 2.04 1.84 2.30 3.09 2.86 3.44 3.50 3.74 4.22 4.74 4.03 3.44 3.20 3.03 3.22 3.03 2.83 3.06 3.29 3.83 3.22 2.83 3.00 3.37 3.11 3.32 4.38 4.16 3.81 3.03 2.68 2.33 2.40 2.36 1.82 1.84 2.11 1.41 0.95 0.98 1.63 1.73 1.62 2.00 1.64 1.33 0.93 0.88 0.98
1.05 1.04 0.51 0.50 0.26 0.92 0.42 0.48 0.38 0.72 1.01 0.59 0.44 0.60 0.74 0.90 0.89 0.91 0.74 0.61 0.70 0.59 0.41 0.34 0.35 0.35 0.48 0.66 0.76 0.52 0.77 1.02 0.81 0.56 0.85 1.13 1.87 1.12 1.19 1.23 1.28 1.41 1.59 1.63 2.45 2.62 2.33 2.99 2.44 1.83 2.26 2.60 3.18 3.37 4.37 3.86 4.08 5.68 4.90 4.40 3.93 3.33 3.16 2.88 3.05 2.68 2.98 2.90 3.08 2.95 2.93 3.23 3.09 3.87 3.78 3.58 4.37 4.09 3.77 3.39 2.54 2.17 2.34 1.84 1.55 1.75 1.94 1.96 1.77 2.08 1.87 1.85 1.32 0.87 0.87 0.89 0.80
0.49 0.73 0.73 0.74 1.04 0.64 0.94 0.87 0.84 0.54 1.11 0.74 0.42 0.53 0.93 1.00 0.91 0.86 0.92 0.73 0.75 0.53 0.40 0.31 0.26 0.28 0.27 0.29 0.52 0.60 0.55 0.59 0.68 0.82 0.85 0.72 0.88 1.06 1.90 1.45 1.31 1.49 1.29 1.61 1.41 1.60 2.51 2.45 2.54 2.83 2.26 2.11 3.09 3.87 3.55 3.71 4.25 4.92 4.53 5.71 4.93 4.60 4.12 4.08 3.57 3.10 3.05 2.75 2.50 2.33 2.64 2.87 3.36 3.48 3.54 4.76 4.20 4.57 4.03 3.77 3.36 2.39 1.99 2.14 2.40 2.23 1.84 2.24 2.33 1.89 1.46 1.26 1.91 1.79 1.06 0.98 0.91
1.04 1.49 0.78 0.64 0.91 0.61 0.85 0.65 1.03 0.99 0.58 0.64 0.52 0.44 0.77 1.06 1.10 0.98 0.90 0.81 0.62 0.61 0.52 0.28 0.24 0.22 0.23 0.26 0.24 0.46 0.61 0.62 0.55 0.56 0.74 0.96 0.88 0.96 0.91 1.12 1.75 1.77 1.26 1.24 1.53 1.84 1.51 1.52 2.01 2.23 2.17 1.86 2.23 2.74 3.06 3.37 3.63 4.31 5.29 5.42 5.16 5.04 5.07 4.46 4.27 4.22 3.74 3.00 2.87 2.59 2.16 2.99 3.35 3.74 4.02 3.81 3.90 3.53 3.46 3.05 3.00 3.57 2.87 2.31 1.92 2.24 2.18 1.66 1.64 2.01 1.87 1.89 1.14 1.58 1.44 1.45 1.24
0.82 0.90 1.17 0.78 0.85 1.14 0.51 0.82 0.56 0.93 0.69 1.15 0.54 0.78 0.66 0.97 1.18 1.21 1.00 0.67 0.62 0.54 0.49 0.38 0.29 0.26 0.24 0.24 0.24 0.24 0.45 0.62 0.63 0.70 0.61 0.73 0.85 0.91 0.95 1.04 0.99 1.08 1.07 1.95 1.93 1.92 1.65 1.67 1.70 1.72 1.90 1.78 1.95 1.87 2.38 3.02 3.73 3.78 3.96 4.47 5.23 5.24 4.88 4.94 4.89 4.66 4.13 3.68 3.21 2.51 2.47 2.21 2.86 2.69 3.10 4.01 3.72 4.49 3.59 3.41 3.28 3.71 3.40 3.36 3.42 2.42 1.82 1.75 1.90 1.84 1.82 1.98 1.86 1.33 1.17 0.75 1.02
0.52 0.43 0.50 0.69 1.02 1.10 0.84 0.69 0.47 1.08 1.21 0.48 0.77 0.93 1.55 1.04 1.11 1.24 1.21 0.80 0.56 0.47 0.51 0.39 0.32 0.25 0.24 0.22 0.34 0.27 0.26 0.47 0.49 0.59 0.74 0.75 0.86 0.86 0.96 0.89 0.84 1.00 0.93 0.91 1.09 1.39 1.77 1.64 1.68 2.00 1.85 1.72 1.65 1.72 2.01 2.20 3.12 2.97 2.84 3.38 3.95 4.49 5.21 4.50 4.50 4.31 4.11 3.68 3.19 3.20 3.25 2.38 2.21 2.44 3.18 2.94 4.01 3.66 3.89 3.64 3.56 3.46 3.03 2.43 2.74 2.92 2.63 2.58 2.81 3.23 2.11 1.98 2.14 2.12 1.72 1.67 1.59
0.45 0.40 0.08 0.42 0.75 0.98 1.20 0.90 1.08 1.21 0.94 1.06 0.50 1.14 1.18 0.93 0.91 0.98 0.92 0.85 0.65 0.38 0.38 0.28 0.21 0.21 0.22 0.24 0.27 0.29 0.31 0.31 0.39 0.42 0.51 0.65 0.77 0.89 0.81 0.85 0.87 0.88 0.90 0.96 0.96 0.99 1.01 1.15 1.23 1.33 1.61 1.90 2.03 1.68 1.90 2.06 2.24 2.63 2.76 2.86 2.74 3.36 4.20 4.52 4.55 4.50 3.95 3.86 3.39 3.00 2.92 2.91 2.63 2.76 2.91 2.87 2.75 3.26 3.29 3.87 3.65 3.84 4.04 3.25 2.99 2.98 2.88 3.00 2.78 2.84 2.88 2.92 2.74 2.66 2.81 2.74 1.49
0.30 0.27 0.18 0.42 0.39 0.53 0.62 1.09 1.07 1.23 1.24 1.27 1.05 0.76 0.92 0.79 0.85 0.69 0.69 0.71 0.75 0.54 0.37 0.30 0.20 0.14 0.16 0.18 0.20 0.27 0.33 0.38 0.39 0.39 0.46 0.48 0.55 0.65 0.78 0.92 0.86 0.87 0.84 0.84 0.89 0.95 0.95 0.88 0.85 0.96 0.98 1.07 1.27 1.51 1.49 1.83 2.09 2.61 2.81 2.87 2.95 2.92 3.44 4.10 4.13 4.04 4.92 4.26 3.74 2.97 2.63 2.69 2.63 2.39 2.25 2.54 3.04 3.10 2.91 3.07 3.40 3.37 3.58 3.82 3.87 3.24 2.75 2.58 2.53 3.06 3.20 3.42 3.43 3.56 3.29 2.78 2.81
0.25 0.23 0.62 0.24 0.22 0.61 0.63 1.07 1.19 0.85 1.17 1.15 0.96 0.98 0.85 0.82 0.89 0.68 0.62 0.71 0.69 0.69 0.51 0.35 0.27 0.17 0.11 0.12 0.15 0.17 0.20 0.28 0.33 0.37 0.40 0.42 0.47 0.54 0.58 0.64 0.77 0.88 0.88 0.90 1.03 0.95 0.88 0.85 0.79 0.76 0.83 0.77 0.77 0.94 1.03 1.31 1.56 1.87 1.95 2.40 2.92 2.56 2.51 2.97 3.62 3.74 3.66 4.75 4.07 3.48 3.08 2.55 2.48 2.44 2.25 2.35 2.22 2.34 2.39 3.14 3.46 3.40 3.41 3.09 3.30 3.37 2.80 2.51 2.38 2.18 2.50 2.43 2.25 2.37 2.65 2.90 2.81
0.29 0.70 0.63 0.59 0.87 1.01 1.08 0.88 1.25 1.13 1.64 1.68 1.06 0.95 0.92 0.98 0.91 0.64 0.47 0.44 0.52 0.53 0.51 0.41 0.28 0.18 0.13 0.10 0.10 0.13 0.15 0.18 0.24 0.30 0.37 0.42 0.44 0.49 0.58 0.64 0.64 0.65 0.68 0.79 0.77 0.80 0.85 0.88 0.74 0.68 0.66 0.66 0.69 0.69 0.80 0.82 0.81 1.18 1.32 1.63 1.95 2.61 2.65 2.37 2.65 3.10 3.35 3.80 3.87 3.29 3.34 3.13 2.98 2.81 2.64 2.34 2.51 2.44 2.24 2.25 2.52 2.78 3.34 3.21 3.24 3.29 3.00 2.86 2.81 2.26 1.86 1.87 1.83 1.88 1.80 1.94 1.98
0.63 1.08 0.77 0.99 0.76 1.23 1.59 1.81 1.63 2.72 2.40 1.66 1.08 0.67 0.49 0.76 0.66 0.65 0.45 0.31 0.30 0.34 0.38 0.40 0.36 0.29 0.19 0.14 0.11 0.12 0.15 0.19 0.23 0.27 0.29 0.32 0.35 0.37 0.38 0.43 0.53 0.59 0.58 0.56 0.55 0.54 0.56 0.61 0.64 0.60 0.54 0.51 0.51 0.56 0.53 0.68 0.89 1.01 0.74 1.01 1.12 1.23 1.60 2.16 2.41 2.51 3.15 3.66 4.28 3.51 2.88 2.82 2.68 2.81 2.66 2.78 2.69 2.70 2.64 2.14 2.47 2.56 2.61 2.68 2.74 2.81 3.41 2.98 2.88 2.58 2.39 1.97 1.80 1.70 1.61 1.36 1.57
0.57 1.28 1.10 1.10 1.58 1.29 1.80 2.08 2.07 2.37 2.07 1.51 1.09 0.68 0.51 0.89 0.59 0.38 0.24 0.15 0.16 0.22 0.37 0.30 0.33 0.45 0.58 0.42 0.28 0.28 0.31 0.34 0.38 0.36 0.33 0.28 0.25 0.24 0.24 0.25 0.26 0.27 0.29 0.33 0.34 0.35 0.36 0.38 0.40 0.42 0.43 0.42 0.38 0.38 0.43 0.41 0.46 0.56 0.79 0.85 0.78 1.03 1.03 1.21 1.70 2.16 2.29 3.14 4.01 3.52 3.46 3.05 2.61 2.63 2.49 2.51 2.56 2.55 2.56 2.65 2.48 2.70 2.43 2.36 2.41 2.32 2.38 2.39 2.52 2.45 2.73 2.68 2.61 2.41 2.24 2.20 2.06
1.13 1.87 1.90 1.28 1.71 1.45 1.64 2.08 2.48 1.80 1.16 0.80 0.68 0.67 1.18 0.85 0.44 0.19 0.13 0.10 0.10 0.09 0.16 0.38 0.40 0.36 0.53 0.49 0.49 0.60 0.52 0.49 0.47 0.40 0.33 0.26 0.23 0.19 0.16 0.14 0.13 0.12 0.12 0.11 0.12 0.15 0.17 0.19 0.22 0.25 0.27 0.28 0.26 0.24 0.26 0.33 0.39 0.34 0.42 0.58 0.60 0.82 0.98 0.83 1.11 1.54 1.92 2.52 3.22 3.26 3.29 3.06 2.61 2.32 2.10 2.08 2.32 2.38 2.24 2.34 2.41 2.41 2.62 2.46 2.30 2.14 2.67 2.44 2.41 2.35 2.06 2.21 2.13 2.09 2.08 1.97 1.84
0.98 1.14 1.36 1.44 2.01 1.57 1.18 1.08 1.21 0.87 0.52 0.53 0.43 0.42 0.50 0.48 0.37 0.20 0.19 0.17 0.15 0.16 0.15 0.14 0.23 0.55 0.36 0.38 0.40 0.41 0.40 0.31 0.26 0.21 0.18 0.15 0.13 0.12 0.09 0.08 0.06 0.06 0.06 0.06 0.06 0.06 0.08 0.10 0.11 0.12 0.16 0.16 0.16 0.16 0.14 0.15 0.19 0.26 0.26 0.31 0.47 0.49 0.50 0.65 0.72 0.88 1.16 1.65 2.36 2.81 2.86 2.99 2.49 2.08 1.99 1.80 1.78 1.88 2.07 1.96 1.93 1.85 2.04 1.96 2.01 2.21 2.23 2.30 2.23 2.51 2.08 1.98 1.77 1.71 1.97 1.78 1.76
0.33 0.93 1.07 1.03 0.85 0.71 0.92 0.68 0.83 0.66 0.31 0.22 0.31 0.75 0.84 0.31 0.31 0.17 0.13 0.17 0.15 0.14 0.12 0.12 0.09 0.12 0.34 0.36 0.19 0.21 0.18 0.17 0.14 0.10 0.10 0.09 0.06 0.05 0.04 0.04 0.03 0.02 0.01 0.01 0.02 0.02 0.02 0.03 0.04 0.05 0.06 0.07 0.10 0.10 0.11 0.12 0.12 0.17 0.25 0.27 0.21 0.38 0.42 0.41 0.38 0.48 0.75 0.91 1.42 2.03 2.29 2.34 2.32 2.04 1.43 1.49 1.31 1.41 1.59 1.50 1.71 1.78 1.79 1.75 1.87 1.88 1.97 2.12 2.28 2.62 2.14 2.14 1.87 1.93 1.88 1.64 1.56
1.95 1.55 1.70 1.69 0.64 0.45 0.64 0.43 0.38 0.37 0.21 0.27 0.35 0.40 0.58 0.17 0.15 0.07 0.07 0.08 0.09 0.10 0.10 0.10 0.11 0.11 0.12 0.16 0.14 0.13 0.12 0.11 0.10 0.09 0.04 0.03 0.02 0.02 0.02 0.02 0.01 0.01 0.01 0.00 0.00 0.00 0.01 0.01 0.01 0.01 0.02 0.03 0.03 0.04 0.05 0.08 0.11 0.11 0.17 0.20 0.22 0.15 0.22 0.45 0.30 0.36 0.38 0.48 0.69 1.11 1.54 1.90 2.02 1.95 1.75 1.20 1.12 0.99 1.07 1.14 1.29 1.36 1.38 1.55 1.80 1.94 1.97 1.96 1.87 1.85 2.02 1.75 1.72 1.71 1.78 1.75 1.65
1.02 0.76 1.19 0.86 0.54 0.47 0.83 0.55 0.40 0.77 0.55 0.36 0.31 0.22 0.11 0.07 0.08 0.04 0.03 0.04 0.06 0.04 0.05 0.06 0.06 0.05 0.05 0.06 0.06 0.05 0.03 0.03 0.03 0.03 0.05 0.01 0.01 0.01 0.00 0.01 0.01 0.01 0.01 0.00 0.00 0.00 0.00 0.00 0.00 0.00 0.00 0.01 0.01 0.01 0.02 0.02 0.04 0.05 0.10 0.09 0.21 0.21 0.20 0.21 0.25 0.37 0.34 0.41 0.53 0.56 0.85 1.16 1.48 1.66 1.60 1.81 1.23 1.03 0.95 0.89 0.92 1.01 1.08 1.16 1.26 1.39 1.47 1.83 1.78 1.82 1.64 1.48 1.56 1.44 1.40 1.39 1.60
1.56 1.10 0.63 0.50 1.02 2.52 1.90 1.31 0.81 1.00 0.93 0.53 0.25 0.16 0.17 0.08 0.20 0.06 0.21 0.04 0.03 0.04 0.02 0.01 0.01 0.02 0.02 0.02 0.02 0.02 0.01 0.01 0.02 0.04 0.04 0.07 0.05 0.00 0.01 0.01 0.00 0.00 0.00 0.00 0.00 0.00 0.00 0.00 0.00 0.00 0.00 0.00 0.00 0.00 0.01 0.01 0.01 0.02 0.04 0.04 0.13 0.15 0.15 0.19 0.20 0.19 0.22 0.46 0.29 0.33 0.51 0.77 0.85 1.06 1.19 1.30 1.30 1.40 1.20 0.97 0.88 0.87 0.96 0.96 1.05 1.18 1.39 1.33 1.40 1.58 1.52 1.58 1.61 1.78 1.59 1.63 1.68
1.32 0.79 1.43 0.57 2.59 1.64 1.25 1.94 2.25 1.38 1.40 0.69 0.23 0.18 0.17 0.15 0.17 0.16 0.04 0.02 0.02 0.01 0.00 0.00 0.00 0.00 0.00 0.00 0.00 0.00 0.00 0.00 0.00 0.00 0.00 0.00 0.04 0.07 0.06 0.01 0.00 0.00 0.00 0.00 0.00 0.00 0.00 0.00 0.00 0.00 0.00 0.00 0.00 0.00 0.00 0.00 0.00 0.00 0.00 0.01 0.01 0.05 0.06 0.08 0.15 0.13 0.27 0.24 0.19 0.30 0.32 0.54 0.73 0.71 0.90 0.98 0.98 0.91 1.00 1.13 0.99 0.86 0.88 0.95 0.97 1.01 1.07 1.21 1.28 1.33 1.35 1.38 1.31 1.33 1.45 1.35 1.34
2.60 0.98 0.91 1.73 1.22 1.20 1.99 1.17 1.19 1.08 0.97 1.36 0.56 0.27 0.26 0.15 0.12 0.08 0.04 0.11 0.05 0.01 0.01 0.00 0.00 0.00 0.00 0.00 0.00 0.00 0.00 0.00 0.00 0.00 0.00 0.00 0.00 0.00 0.02 0.08 0.09 0.02 0.01 0.01 0.00 0.00 0.00 0.00 0.00 0.01 0.00 0.00 0.00 0.00 0.00 0.00 0.00 0.00 0.00 0.00 0.00 0.01 0.02 0.03 0.04 0.10 0.11 0.14 0.15 0.14 0.15 0.31 0.35 0.60 0.79 0.92 0.83 0.81 0.77 0.80 0.96 1.16 0.79 0.79 0.79 0.85 1.04 0.97 1.08 1.22 1.33 1.29 1.30 1.26 1.25 1.23 1.23
1.57 1.86 2.69 1.84 1.68 1.91 1.42 1.95 1.64 1.31 1.29 0.73 0.56 0.45 0.24 0.07 0.06 0.06 0.05 0.05 0.03 0.02 0.02 0.02 0.00 0.00 0.00 0.00 0.00 0.00 0.00 0.00 0.00 0.00 0.00 0.00 0.00 0.00 0.01 0.01 0.03 0.01 0.00 0.00 0.00 0.00 0.00 0.00 0.00 0.00 0.00 0.00 0.00 0.00 0.00 0.00 0.01 0.01 0.00 0.00 0.00 0.00 0.01 0.02 0.02 0.03 0.06 0.07 0.11 0.15 0.20 0.20 0.21 0.31 0.50 0.66 0.72 0.73 0.73 0.75 0.72 0.78 0.87 0.84 0.77 0.70 0.78 0.90 0.92 1.01 1.06 1.04 1.13 1.13 1.12 1.11 1.07
1.55 1.61 1.49 1.67 1.53 1.55 2.12 1.70 1.11 0.86 1.45 1.04 0.95 0.58 0.28 0.18 0.13 0.03 0.06 0.02 0.04 0.08 0.02 0.01 0.01 0.00 0.01 0.00 0.00 0.00 0.14 0.00 0.00 0.00 0.00 0.00 0.00 0.00 0.00 0.01 0.02 0.00 0.02 0.00 0.00 0.00 0.00 0.00 0.00 0.00 0.00 0.00 0.00 0.00 0.00 0.00 0.01 0.00 0.00 0.00 0.00 0.00 0.01 0.02 0.03 0.02 0.03 0.05 0.07 0.10 0.13 0.17 0.20 0.18 0.25 0.43 0.60 0.68 0.65 0.73 0.67 0.66 0.84 0.79 0.67 0.91 0.69 0.67 0.80 0.91 0.96 1.00 0.99 1.02 1.06 1.09 1.01